Simultaneous Nadir Overpasses (SNOs) Predictions

Prediction of SNOs between AQUA and METOP-C Satellite Orbit:

Table of predicted SNOs for the next 14.0 days since TLE Epoch: 5/27/2023
Index Date (AQUA) Time (AQUA) Lat,Lon (AQUA) SZA (AQUA ) Date (METOP-C) Time (METOP-C) Lat,Lon (METOP-C) SZA (METOP-C ) Distance(km) Time Diff (sec)
1 05/29/2023 00:46:22 -74.46, -15.78 127.14 05/29/2023 00:45:45 -74.46, -15.77 127.14 0.49 37
2 05/29/2023 01:35:49 74.53, 151.69 52.93 05/29/2023 01:36:24 74.51, 151.71 52.91 2.35 35
3 05/31/2023 18:39:08 -74.49, 75.99 127.52 05/31/2023 18:38:42 -74.47, 76.00 127.54 2.84 26
4 05/31/2023 19:28:34 74.52,-116.43 52.50 05/31/2023 19:29:21 74.51,-116.55 52.50 3.66 47
5 06/03/2023 11:42:17 73.82, 1.74 51.43 06/03/2023 11:41:12 73.78, -1.27 51.47 93.40 65
6 06/03/2023 12:31:54 -74.51, 167.78 127.86 06/03/2023 12:31:39 -74.52, 167.89 127.85 3.14 15
7 06/03/2023 13:21:20 74.54, -24.64 52.17 06/03/2023 13:22:18 74.55, -24.69 52.18 2.13 58
8 06/06/2023 05:35:12 74.35, 92.37 51.67 06/06/2023 05:34:00 74.26, 91.66 51.60 23.47 72
9 06/06/2023 06:24:39 -74.52,-100.39 128.17 06/06/2023 06:24:37 -74.51,-100.38 128.17 0.83 2
10 06/06/2023 07:14:06 74.60, 67.06 51.92 06/06/2023 07:15:15 74.58, 67.14 51.90 3.17 69
11 06/08/2023 23:27:57 74.45,-176.02 51.51 06/08/2023 23:26:53 74.43,-176.15 51.51 3.93 64
12 06/09/2023 00:17:22 -74.51, -8.53 128.43 06/09/2023 00:17:33 -74.54, -8.53 128.40 3.68 11



Historial Predications of SNOs between AQUA and METOP-C
